{"data":{"norad_id":46906,"epoch":"2026-05-25T04:50:51.838368Z","epoch_age_seconds":57466,"freshness":"FRESH","line1":"1 46906U 20081B   26145.20198887  .00007729  00000+0  29428-3 0  9999","line2":"2 46906  36.8932 200.8034 0001605 336.3123  23.7552 15.26313328305655","mean_motion":15.26313328,"eccentricity":0.0001605,"inclination_deg":36.8932,"raan_deg":200.8034,"arg_perigee_deg":336.3123,"mean_anomaly_deg":23.7552,"bstar":0.00029428,"rev_number":30565,"period_min":94.34497973538,"perigee_km":485.7427609583,"apogee_km":487.94642004885,"semimajor_km":6864.9815905036,"source":"CELESTRAK","updated_at":"2026-05-25T13:37:56.367550Z"}}